SL-14 DEB, 45267

Orbit data source: Space-Track

SL-14 DEB, 45267 is space debris in LEO originally from a launch on Thu, 15 Aug 1991 UTC launched from the Plesetsk Missile And Space Complex (PKMTR). Debris objects in space refer to the collection of defunct objects orbiting the Earth. Examples of debris include non-operational satellites, rocket bodies, and fragments generated from explosions, collisions, or faulty payload assembly.

Loading next visibility...
Identifier
45267, 1991-056D
Orbit
LEO
Country
Flag of CISCIS
Related business
Manufacturer
Unknown
Mission
Spacecraft
Bus & Motor
Unknown
Mass
Unknown
Launch date (UTC)
1991-08-15 (35 years ago)
Launch vehicle
Unknown
Launch site
Plesetsk Missile And Space Complex (PKMTR)
Object type
Payload
Rocket body
Debris
Shape & HBR
Unknown shape, 0.4 m
Radar Cross Section
Medium (>0.1 m² and <1 m²)

Expand to show TLE details & history
Last TLE update: 9 hours ago

TLE from 9 hours ago
0 SL-14 DEB
1 45267U 91056D   26219.95046191 -.00000087  00000-0 -27073-3 0  9999
2 45267  82.5674 113.9954 0015994 134.5444 225.6986 13.14140194311026
Epoch: 2026-08-07T22:48Z
TLE epoch observation values (Epoch: 2026-08-07T22:48:39.909Z)
Latitude
-0°
Longitude
175.36031°
Altitude
1,218.474 km
Speed
7.241 km/s
True Right ascension
07h 35m 58s
True Declination
0° 00' 00"
Sunlit
Object was in daylight at epoch
Visualization orbit readout
Latitude
Unknown
Longitude
Unknown
Altitude
Unknown
Speed
Unknown
Apparent Right ascension
Unknown
Apparent Declination
Unknown
Sunlit
N/A
Visualization observer readout
Local Sidereal Time
21:31:03
Azimuth
Unknown
Elevation
Unknown
Doppler factor
Unknown
Orbital elements
Apogee altitude
1,216.561 km
Perigee altitude
1,192.306 km
Semi-major axis
7,582.57 km
Eccentricity
0.0016
Inclination
82.5674°
RAAN
113.9954°
Arg. of periapsis
134.5444°
True anomaly
225.56762°
Mean anomaly
225.6986°
Eccentric anomaly
225.63309°
Mean motion
3.28714 °/min
Orbital period
109.52 mins
BSTAR
-0.00027073
Loading maneuver chart data...
Computing Atmospheric mass density...
Loading historical data...
Loading historical data...
Loading historical data...
Loading historical data...
Loading historical data...
Loading historical data...
Loading historical data...

Documentation

Showing up to 5 results
|